Regional Weather Roundup
Issued by NWS New Orleans/Baton Rouge, LA

Home | Current Version | Previous Version | Graphics & Text | Print | Product List | Glossary On
Versions: 1 2 3 4 5 6 7 8 9 10 11 12 13 14 15 16 17 18 19 20 21 22 23 24 25 26 27 28 29 30 31 32 33 34 35 36 37 38 39 40 41 42 43 44 45 46 47 48 49 50
325
ASUS44 KLIX 310910
RWRLIX
NEW ORLEANS REGIONAL WEATHER ROUNDUP
NATIONAL WEATHER SERVICE NEW ORLEANS LA
400 AM CDT FRI OCT 31 2014

NOTE: "FAIR" INDICATES FEW OR NO CLOUDS BELOW 12,000 FEET WITH NO
      SIGNIFICANT WEATHER AND/OR OBSTRUCTIONS TO VISIBILITY.
      SKY/WX - SKY CONDITION AND SIGNIFICANT WEATHER.
      TMP - AIR TEMPERATURE.     DP    - DEWPOINT TEMPERATURE.
      RH  - RELATIVE HUMIDITY.   PRES  - PRESSURE.
      HI  - HEAT INDEX.          WCI   - WIND CHILL INDEX.

*  THESE STATIONS ARE NOT NWS OR FAA STATIONS AND ARE NOT UNDER
   NWS QUALITY CONTROL.

LAZ038-040-048-061>063-065>067-069-311000-
SOUTHEAST LOUISIANA

CITY           SKY/WX    TMP DP  RH WIND       PRES   REMARKS
N.O. AUDUBON     N/A     58  57  96 MISG        N/A
N.O. INTL ARPT PTCLDY    56  48  74 NW3       30.04S
N.O. LAKEFRONT CLEAR     65  49  56 N12       30.04S
N.O. DOWNTOWN*   N/A     63  46  55 CALM      30.04S
SLIDELL        CLEAR     46  42  86 CALM      30.03S
BATON ROUGE    CLEAR     48  45  89 CALM      30.04F
BOOTHVILLE     CLEAR     65  51  60 N6        30.02F
BELLE CHASSE   CLEAR     49  45  86 CALM      30.03F
BOGALUSA*        N/A     44  40  88 CALM      30.05S
NEW ROADS*       N/A     47  46  95 CALM      30.05F
GONZALES*      PTSUNNY   50  50 100 CALM      30.05S
HAMMOND*       CLEAR     46  43  87 CALM      30.05F
HOUMA*         CLEAR     54  48  80 NW3       30.04S
PORT FOURCHON* SUNNY     64  50  59 N8        30.06S

$$

MSZ070-080>082-311000-
SOUTHERN MISSISSIPPI

CITY           SKY/WX    TMP DP  RH WIND       PRES   REMARKS
MCCOMB         CLEAR     47  43  86 CALM      30.04F
GULFPORT       CLEAR     47  43  86 CALM      30.02S
BILOXI         CLEAR     54  44  69 N3        30.01F
PASCAGOULA     CLEAR     41  40  96 CALM      30.02F

$$

COASTAL OBSERVATIONS
LAKE AND NEARSHORE STATIONS

STATION/POSITION TIME  TEMP    WIND        PRES    WAVE
                       AIR SEA DIR/SP/G            HT/PER
                 (UTC) (F)     (DEG/KT/KT) (MB)    (FT/S)
PASCAGOULA       0900   52     340/  6/  7 1015.8
WAVELAND YACHT   0900   56     300/  3/  4 1015.8
GRAND ISLE       0900   68 73   10/  8/ 11 1017.1
SOUTHWEST PASS   0900   69 77              1016.5
NEW CANAL        0900   67 69  360/  8/ 10 1017.2
SHELL BEACH      0900   67 67  360/ 10/ 13 1016.5

OFFSHORE STATIONS

STATION/POSITION TIME  TEMP    WIND        PRES    WAVE
                       AIR SEA DIR/SP/G            HT/PER
                 (UTC) (F)     (DEG/KT/KT) (MB)    (FT/S)
64 S DAUPHIN ISL 0828   69 77  360/ 16/ 17 1015.8    3/ 4

$$




USA.gov is the U.S. government's official web portal to all federal, state and local government web resources and services.